TimePDT,TemperatureF,Dew PointF,Humidity,Sea Level PressureIn,VisibilityMPH,Wind Direction,Wind SpeedMPH,Gust SpeedMPH,PrecipitationIn,Events,Conditions,WindDirDegrees,DateUTC
12:53 AM,43.0,37.9,82,29.85,10.0,NNW,11.5,-,N/A,,Overcast,330,2013-09-26 07:53:00
1:53 AM,43.0,37.9,82,29.85,10.0,NW,9.2,-,N/A,,Overcast,320,2013-09-26 08:53:00
2:53 AM,43.0,37.9,82,29.86,10.0,NNW,12.7,-,N/A,,Overcast,330,2013-09-26 09:53:00
3:53 AM,43.0,37.0,80,29.86,10.0,NW,13.8,19.6,N/A,,Overcast,320,2013-09-26 10:53:00
4:53 AM,43.0,37.9,82,29.87,10.0,NNW,10.4,-,N/A,,Overcast,330,2013-09-26 11:53:00
5:53 AM,42.1,37.0,82,29.87,10.0,NW,12.7,-,N/A,,Overcast,310,2013-09-26 12:53:00
6:53 AM,43.0,37.9,82,29.89,10.0,NW,11.5,-,N/A,,Overcast,310,2013-09-26 13:53:00
7:53 AM,44.1,36.0,73,29.90,10.0,NW,15.0,-,N/A,,Overcast,310,2013-09-26 14:53:00
8:53 AM,46.0,37.0,71,29.91,10.0,NW,19.6,-,N/A,,Overcast,310,2013-09-26 15:53:00
9:53 AM,48.0,37.0,66,29.91,10.0,NW,25.3,33.4,N/A,,Overcast,310,2013-09-26 16:53:00
10:53 AM,50.0,39.0,66,29.91,10.0,NW,27.6,38.0,N/A,,Overcast,310,2013-09-26 17:53:00
11:53 AM,53.1,39.0,59,29.91,10.0,WNW,27.6,36.8,N/A,,Mostly Cloudy,300,2013-09-26 18:53:00
12:53 PM,53.1,37.9,57,29.91,10.0,WNW,27.6,36.8,N/A,,Partly Cloudy,300,2013-09-26 19:53:00
1:53 PM,55.0,37.9,53,29.92,10.0,NW,26.5,35.7,N/A,,Clear,310,2013-09-26 20:53:00
2:53 PM,51.1,37.9,61,29.95,10.0,WNW,23.0,34.5,N/A,,Mostly Cloudy,300,2013-09-26 21:53:00
3:53 PM,48.9,37.9,66,29.97,10.0,NW,21.9,27.6,N/A,,Mostly Cloudy,310,2013-09-26 22:53:00
4:53 PM,48.0,37.0,66,29.99,10.0,NW,24.2,29.9,N/A,,Overcast,310,2013-09-26 23:53:00
5:53 PM,46.9,37.0,68,30.01,10.0,NW,20.7,29.9,N/A,,Partly Cloudy,310,2013-09-27 00:53:00
6:53 PM,45.0,36.0,71,30.03,10.0,NW,21.9,28.8,N/A,,Overcast,310,2013-09-27 01:53:00
7:53 PM,44.1,36.0,73,30.06,10.0,NW,20.7,-,N/A,,Partly Cloudy,310,2013-09-27 02:53:00
8:53 PM,43.0,37.0,80,30.07,10.0,WNW,12.7,-,N/A,,Mostly Cloudy,300,2013-09-27 03:53:00
9:53 PM,39.9,36.0,86,30.08,10.0,NW,10.4,-,N/A,,Overcast,310,2013-09-27 04:53:00
10:53 PM,39.9,36.0,86,30.07,10.0,WNW,12.7,-,N/A,,Clear,300,2013-09-27 05:53:00
11:53 PM,39.0,35.1,86,30.08,10.0,NW,8.1,-,N/A,,Clear,310,2013-09-27 06:53:00